User: anonymous   Login
Location: Unspecified
(0.0000°N, 0.0000°E)
Time: 00:37:58
(UTC+00:00)
Language:

NUDT-PHONESAT - Orbit

View from above orbital plane
View from above orbital plane
View from above satellite
View from above satellite

Ground track
Ground track

The orbit data is extracted from the following two-line orbital elements,

1 40900U 15049B   17206.56532757 +.00001905 +00000-0 +92587-4 0  9998
2 40900 097.4423 213.9452 0015914 091.9291 268.3767 15.19546186102289
Epoch (UTC): 25 July 2017 13:34:04
Eccentricity: 0.0015914
inclination: 97.4423°
perigee height: 496 km
apogee height: 518 km
right ascension of ascending node: 213.9452°
argument of perigee: 91.9291°
revolutions per day: 15.19546186
mean anomaly at epoch: 268.3767°
orbit number at epoch: 10228

The dashed part of the orbit path shows where the satellite is in the earth's shadow,  

DLR